Location: Peterborough
(44.3091°N, 78.3197°W)
Time: 00:19:44
(UTC-04:00)

S-56A Canister/Altair - Pass Details

Date: 22 March 2023
Orbit: 639 x 2492 km, 38.9° (Epoch: 02 June)

Event Time Altitude Azimuth Distance (km) Brightness Sun altitude
Rises 21:27:51 0° 241° (WSW) 5,310 12.3 -21.6°
Reaches altitude 10° 21:31:03 10° 238° (WSW) 4,515 11.8 -22.1°
Maximum altitude 21:43:59 63° 162° (SSE) 2,642 9.9 -24.2°
Enters shadow 21:52:14 32° 96° (E) 3,660 10.4 -25.5°
